Fort Collins, CO

7:28 PM MST on December 08, 2019 (GMT -0700)
Fort Collins-Loveland Municipal

Weather History for KFNL - October, 2019

Change the Weather History Date:

Wednesday, October 30, 2019

  Actual Average Record
Temperature  
Mean Temperature 14 °F -  
Max Temperature 24 °F - 75 °F (2007)
Min Temperature 4 °F - 4 °F (2019)
Degree Days  
Heating Degree Days 51    
Month to date heating degree days 619  
Cooling Degree Days 0    
Month to date cooling degree days 0  
Moisture  
Dew Point 6 °F    
Average Humidity 80    
Maximum Humidity 91    
Minimum Humidity 68    
Precipitation  
Precipitation 0.01 in - 0.24 in (2005)
Snow  
Snow 0.00 in - - ()
Snow Depth 0.00 in    
Sea Level Pressure  
Sea Level Pressure 30.40 in    
Wind  
Wind Speed 8 mph (SE)    
Max Wind Speed 12 mph    
Max Gust Speed -    
Visibility 6 miles    
Events Snow    
T = Trace of Precipitation, MM = Missing Value Source: NWS Daily Summary

Daily Weather History Graph

Daily Weather History Graph

Search for Another Location

Airport or City:

Astronomy

Oct. 30, 2019 Rise Set
Actual Time 7:27 AM MDT 5:59 PM MDT
Civil Twilight 6:59 AM MDT 6:27 PM MDT
Nautical Twilight 6:27 AM MDT 6:59 PM MDT
Astronomical Twilight 5:55 AM MDT 7:31 PM MDT
Moon 10:13 AM MDT (10/30) 8:08 PM MDT (10/30)
Length of Visible Light 11h 28m
Length of Day
10h 32m
Waxing Crescent, 9% of the Moon is Illuminated
Oct 30
Waxing Crescent
Nov 4
First Quarter
Nov 12
Full
Nov 19
Last Quarter
Nov 26
New

Hourly Weather History & Observations

Time (MDT) Temp. Windchill Dew Point Humidity Pressure Visibility Wind Dir Wind Speed Gust Speed Precip Events Conditions
12:36 AM 8.6 °F -4.7 °F 5.0 °F 85% 30.29 in 4.0 mi North 9.2 mph - 0.00 in Snow Light Snow
12:56 AM 8.1 °F -4.3 °F 6.1 °F 92% 30.49 in 2.5 mi NNE 8.1 mph - 0.00 in Snow Light Snow
1:32 AM - - - N/A% 30.30 in 3.0 mi North 8.1 mph - 0.00 in   Unknown
1:44 AM - - - N/A% 30.30 in 2.5 mi North 9.2 mph - 0.00 in   Unknown
1:56 AM 8.1 °F -7.0 °F 5.0 °F 87% 30.50 in 2.5 mi North 11.5 mph - 0.00 in Snow Light Snow
2:21 AM 8.6 °F -4.7 °F 5.0 °F 85% 30.29 in 1.8 mi NNE 9.2 mph - 0.00 in Snow Light Snow
2:31 AM 8.6 °F -5.5 °F 5.0 °F 85% 30.29 in 2.0 mi NNE 10.4 mph - 0.00 in Snow Light Snow
2:56 AM 8.1 °F -5.3 °F 5.0 °F 87% 30.50 in 2.0 mi NNE 9.2 mph - 0.00 in Snow Light Snow
3:20 AM 8.6 °F -2.6 °F 5.0 °F 85% 30.29 in 1.5 mi NNE 6.9 mph - 0.00 in Snow Light Snow
3:56 AM 7.0 °F -7.5 °F 3.9 °F 87% 30.50 in 1.5 mi NNE 10.4 mph - 0.00 in Snow Light Snow
4:08 AM 6.8 °F -6.9 °F 3.2 °F 85% 30.29 in 2.0 mi NNE 9.2 mph - 0.00 in Snow Light Snow
4:28 AM 6.8 °F -5.9 °F 3.2 °F 85% 30.28 in 4.0 mi NNE 8.1 mph - 0.00 in Snow Light Snow
4:56 AM 7.0 °F -5.7 °F 3.9 °F 87% 30.50 in 4.0 mi NE 8.1 mph - 0.00 in Snow Light Snow
5:26 AM 6.8 °F -3.5 °F 3.2 °F 85% 30.29 in 8.0 mi NE 5.8 mph - 0.00 in Snow Light Snow
5:40 AM 6.8 °F -2.0 °F 3.2 °F 85% 30.29 in 9.0 mi NE 4.6 mph - 0.00 in   Scattered Clouds
5:56 AM 6.1 °F -0.9 °F 3.0 °F 87% 30.51 in 10.0 mi NE 3.5 mph - 0.00 in   Clear
6:56 AM 5.0 °F -2.1 °F 1.9 °F 87% 30.53 in 10.0 mi South 3.5 mph - 0.00 in   Mostly Cloudy
7:43 AM 6.8 °F -3.5 °F 3.2 °F 85% 30.30 in 2.0 mi South 5.8 mph - 0.00 in Snow Light Snow
7:47 AM 6.8 °F -3.5 °F 3.2 °F 85% 30.30 in 1.2 mi SSW 5.8 mph - 0.00 in Snow Light Snow
7:54 AM 6.8 °F -3.5 °F 3.2 °F 85% 30.30 in 1.2 mi SSW 5.8 mph - 0.00 in Snow Light Snow
7:56 AM 7.0 °F -3.3 °F 3.9 °F 87% 30.54 in 1.2 mi SSW 5.8 mph - 0.00 in Snow Light Snow
8:04 AM 6.8 °F -3.5 °F 3.2 °F 85% 30.31 in 2.0 mi SSW 5.8 mph - 0.00 in Snow Light Snow
8:09 AM 8.6 °F 0.1 °F 5.0 °F 85% 30.31 in 5.0 mi SSW 4.6 mph - 0.00 in Snow Light Snow
8:20 AM 8.6 °F -1.3 °F 5.0 °F 85% 30.31 in 9.0 mi SSW 5.8 mph - 0.00 in Snow Light Snow
8:56 AM 9.0 °F -4.2 °F 6.1 °F 88% 30.53 in 10.0 mi South 9.2 mph - 0.00 in   Scattered Clouds
9:56 AM 10.0 °F -1.9 °F 6.1 °F 84% 30.54 in 10.0 mi SSW 8.1 mph - N/A   Clear
10:56 AM 16.0 °F 6.3 °F 12.0 °F 84% 30.52 in 10.0 mi South 6.9 mph - 0.01 in   Clear
11:56 AM 21.9 °F 14.5 °F 17.1 °F 82% 30.49 in 10.0 mi SSW 5.8 mph - N/A   Clear
12:56 PM 21.0 °F 11.4 °F 14.0 °F 74% 30.45 in 10.0 mi SSW 8.1 mph - N/A   Clear
1:56 PM 23.0 °F 14.7 °F 16.0 °F 74% 30.42 in 10.0 mi SSW 6.9 mph - N/A   Clear
2:56 PM 24.1 °F 13.7 °F 15.1 °F 69% 30.40 in 10.0 mi SSW 10.4 mph - N/A   Clear
3:56 PM 23.0 °F 13.1 °F 16.0 °F 74% 30.40 in 10.0 mi SSW 9.2 mph - N/A   Clear
4:56 PM 21.9 °F 11.7 °F 15.1 °F 75% 30.41 in 10.0 mi South 9.2 mph - N/A   Clear
5:56 PM 16.0 °F 5.3 °F 10.0 °F 77% 30.43 in 10.0 mi South 8.1 mph - N/A   Clear
6:56 PM 12.0 °F 1.5 °F 7.0 °F 80% 30.45 in 10.0 mi South 6.9 mph - N/A   Clear
7:56 PM 10.9 °F -1.8 °F 6.1 °F 81% 30.45 in 10.0 mi SSW 9.2 mph - N/A   Clear
8:56 PM 10.9 °F 2.9 °F 6.1 °F 81% 30.43 in 10.0 mi SSW 4.6 mph - N/A   Clear
9:56 PM 10.0 °F 1.8 °F 6.1 °F 84% 30.44 in 10.0 mi NE 4.6 mph - N/A   Clear
10:56 PM 7.0 °F -1.7 °F 3.0 °F 84% 30.44 in 10.0 mi NE 4.6 mph - N/A   Clear
11:56 PM 6.1 °F -4.3 °F 1.9 °F 83% 30.42 in 10.0 mi North 5.8 mph - N/A   Clear